TimeMST,TemperatureF,Dew PointF,Humidity,Sea Level PressureIn,VisibilityMPH,Wind Direction,Wind SpeedMPH,Gust SpeedMPH,PrecipitationIn,Events,Conditions,WindDirDegrees,DateUTC
12:07 AM,10.4,6.8,85,30.19,2.0,NNE,6.9,-,0.00,Snow,Light Snow,20,2014-01-05 07:07:00
12:19 AM,10.4,6.8,85,30.19,5.0,NNE,5.8,-,0.00,Snow,Light Snow,20,2014-01-05 07:19:00
12:53 AM,10.9,7.0,84,30.38,2.5,ENE,5.8,-,0.00,Snow,Light Snow,60,2014-01-05 07:53:00
1:01 AM,10.4,6.8,85,30.20,1.8,East,5.8,-,0.00,Snow,Light Snow,80,2014-01-05 08:01:00
1:53 AM,10.0,5.0,80,30.42,1.5,NE,9.2,-,0.00,Snow,Light Snow,40,2014-01-05 08:53:00
2:12 AM,10.4,6.8,85,30.23,1.0,NE,6.9,-,0.00,Snow,Light Snow,40,2014-01-05 09:12:00
2:27 AM,8.6,5.0,85,30.23,1.8,NE,9.2,-,0.00,Snow,Light Snow,50,2014-01-05 09:27:00
2:31 AM,8.6,5.0,85,30.23,3.0,NE,8.1,-,0.00,Snow,Light Snow,50,2014-01-05 09:31:00
2:39 AM,8.6,5.0,85,30.23,1.8,NE,8.1,-,0.00,Snow,Light Snow,50,2014-01-05 09:39:00
2:53 AM,9.0,3.9,80,30.43,1.5,NE,6.9,-,0.00,Snow,Light Snow,50,2014-01-05 09:53:00
3:10 AM,8.6,5.0,85,30.24,2.0,ENE,5.8,-,0.00,Snow,Light Snow,60,2014-01-05 10:10:00
3:37 AM,8.6,3.2,79,30.24,1.8,NE,4.6,-,0.00,Snow,Light Snow,50,2014-01-05 10:37:00
3:53 AM,8.1,5.0,87,30.44,2.0,NE,3.5,-,0.00,Snow,Light Snow,50,2014-01-05 10:53:00
4:00 AM,8.6,3.2,79,30.24,2.5,Calm,Calm,-,0.00,Snow,Light Snow,0,2014-01-05 11:00:00
4:25 AM,8.6,3.2,79,30.24,3.0,Calm,Calm,-,0.00,Snow,Light Snow,0,2014-01-05 11:25:00
4:37 AM,8.6,3.2,79,30.25,1.8,Calm,Calm,-,0.00,Snow,Light Snow,0,2014-01-05 11:37:00
4:51 AM,8.6,3.2,79,30.26,3.0,North,3.5,-,0.00,Snow,Light Snow,360,2014-01-05 11:51:00
4:53 AM,8.1,3.9,83,30.47,3.0,North,3.5,-,0.00,Snow,Light Snow,350,2014-01-05 11:53:00
5:00 AM,8.6,3.2,79,30.26,2.0,Calm,Calm,-,0.00,Snow,Light Snow,0,2014-01-05 12:00:00
5:07 AM,8.6,5.0,85,30.26,1.2,Calm,Calm,-,0.00,Snow,Light Snow,0,2014-01-05 12:07:00
5:17 AM,8.6,5.0,85,30.26,1.8,Calm,Calm,-,0.00,Snow,Light Snow,0,2014-01-05 12:17:00
5:24 AM,8.6,5.0,85,30.26,2.5,Calm,Calm,-,0.00,Snow,Light Snow,0,2014-01-05 12:24:00
5:43 AM,8.6,5.0,85,30.27,1.5,West,5.8,-,0.00,Snow,Light Snow,280,2014-01-05 12:43:00
5:53 AM,9.0,5.0,84,30.46,1.5,West,4.6,-,0.00,Snow,Light Snow,270,2014-01-05 12:53:00
5:57 AM,8.6,5.0,85,30.26,2.0,WSW,3.5,-,0.00,Snow,Light Snow,250,2014-01-05 12:57:00
6:07 AM,8.6,3.2,79,30.27,4.0,WSW,4.6,-,0.00,Snow,Light Snow,250,2014-01-05 13:07:00
6:53 AM,9.0,-0.0,67,30.48,10.0,WNW,17.3,-,0.00,,Mostly Cloudy,290,2014-01-05 13:53:00
7:53 AM,7.0,-0.0,73,30.52,10.0,WNW,19.6,27.6,N/A,,Scattered Clouds,300,2014-01-05 14:53:00
8:53 AM,8.1,-0.0,70,30.55,10.0,NW,15.0,21.9,N/A,,Overcast,310,2014-01-05 15:53:00
9:34 AM,6.8,-0.4,72,30.36,10.0,NNE,11.5,-,N/A,,Mostly Cloudy,30,2014-01-05 16:34:00
9:53 AM,3.9,-2.0,76,30.61,6.0,NNE,12.7,-,N/A,,Haze,30,2014-01-05 16:53:00
10:10 AM,5.0,-2.2,72,30.38,9.0,NNE,10.4,-,N/A,,Mostly Cloudy,20,2014-01-05 17:10:00
10:18 AM,3.2,-2.2,78,30.39,10.0,NNE,9.2,-,N/A,,Mostly Cloudy,20,2014-01-05 17:18:00
10:45 AM,5.0,-0.4,78,30.39,1.8,NNE,11.5,-,0.00,Snow,Light Snow,30,2014-01-05 17:45:00
10:53 AM,3.9,-0.9,80,30.63,0.8,NNE,15.0,-,0.00,Snow,Light Snow,20,2014-01-05 17:53:00
11:10 AM,3.2,-2.2,78,30.40,1.0,NNE,11.5,-,0.00,Snow,Light Snow,20,2014-01-05 18:10:00
11:17 AM,3.2,-2.2,78,30.40,0.5,NNE,15.0,-,0.00,Snow,Snow,20,2014-01-05 18:17:00
11:44 AM,1.4,-5.8,72,30.41,1.0,NNE,15.0,-,0.00,Snow,Light Snow,30,2014-01-05 18:44:00
11:53 AM,1.9,-5.1,72,30.66,2.0,NNE,12.7,-,0.00,Snow,Light Snow,20,2014-01-05 18:53:00
12:09 PM,1.4,-5.8,72,30.41,4.0,NNE,11.5,-,0.00,,Haze,20,2014-01-05 19:09:00
12:19 PM,1.4,-5.8,72,30.41,2.0,NNE,19.6,24.2,0.00,,Haze,20,2014-01-05 19:19:00
12:26 PM,-0.4,-5.8,78,30.42,1.0,North,15.0,24.2,0.00,Snow,Light Snow,10,2014-01-05 19:26:00
12:53 PM,-2.0,-8.0,76,30.68,1.0,NNE,12.7,-,0.00,Snow,Light Snow,20,2014-01-05 19:53:00
1:07 PM,-2.2,-9.4,71,30.42,3.0,NNE,6.9,-,0.00,,Haze,30,2014-01-05 20:07:00
1:35 PM,-0.4,-7.6,72,30.43,10.0,Variable,3.5,-,0.00,,Mostly Cloudy,0,2014-01-05 20:35:00
1:53 PM,-0.0,-9.9,63,30.69,10.0,WNW,19.6,26.5,0.00,,Mostly Cloudy,300,2014-01-05 20:53:00
1:58 PM,1.4,-9.4,61,30.43,1.5,WNW,31.1,40.3,N/A,,Haze,300,2014-01-05 20:58:00
2:05 PM,-0.4,-9.4,66,30.44,0.8,NW,25.3,40.3,N/A,Snow,Blowing Snow,310,2014-01-05 21:05:00
2:13 PM,-0.4,-11.2,60,30.45,1.2,NW,27.6,40.3,N/A,Snow,Blowing Snow,310,2014-01-05 21:13:00
2:53 PM,-2.0,-14.1,57,30.72,2.0,NW,26.5,39.1,0.00,,Haze,310,2014-01-05 21:53:00
3:23 PM,-2.2,-16.6,50,30.47,3.0,WNW,27.6,36.8,N/A,,Haze,300,2014-01-05 22:23:00
3:53 PM,-4.0,-16.1,56,30.74,6.0,NW,23.0,33.4,N/A,,Haze,310,2014-01-05 22:53:00
4:53 PM,-6.0,-18.0,56,30.76,8.0,NW,25.3,35.7,N/A,,Clear,310,2014-01-05 23:53:00
5:53 PM,-6.0,-18.9,54,30.76,10.0,NW,21.9,32.2,N/A,,Clear,310,2014-01-06 00:53:00
6:53 PM,-7.1,-18.0,59,30.75,10.0,WNW,24.2,34.5,N/A,,Clear,300,2014-01-06 01:53:00
7:53 PM,-8.0,-18.9,59,30.74,10.0,WNW,21.9,28.8,N/A,,Clear,300,2014-01-06 02:53:00
8:53 PM,-8.0,-18.9,59,30.73,10.0,WNW,18.4,24.2,N/A,,Clear,290,2014-01-06 03:53:00
9:53 PM,-9.0,-18.9,62,30.73,10.0,WSW,11.5,-,N/A,,Clear,240,2014-01-06 04:53:00
10:53 PM,-8.0,-18.9,59,30.70,10.0,WSW,13.8,-,N/A,,Clear,250,2014-01-06 05:53:00
11:53 PM,-8.0,-18.9,59,30.68,10.0,West,6.9,-,N/A,,Clear,280,2014-01-06 06:53:00